| time (UTC) | temp F | wind direction | speed MPH | gust MPH | rain 1hr in | rain 24hr in | rain mn in | humidity % | barometer mb |
| 20260906183520 | 81 | 0 | 0.0 | 0.0 | 0.00 | 0.00 | 0.00 | 56 | 979.6 |
| 20260906180528 | 83 | 0 | 0.0 | 0.0 | 0.00 | 0.00 | 0.00 | 54 | 979.4 |
| 20260906173514 | 84 | 0 | 0.0 | 0.0 | 0.00 | 0.00 | 0.00 | 48 | 979.4 |
| 20260906170514 | 86 | 0 | 0.0 | 0.0 | 0.00 | 0.00 | 0.00 | 46 | 979.5 |
| 20260906163514 | 87 | 0 | 0.0 | 0.0 | 0.00 | 0.00 | 0.00 | 44 | 979.5 |
| 20260906160515 | 87 | 0 | 0.0 | 0.0 | 0.00 | 0.00 | 0.00 | 42 | 979.5 |
| 20260906153514 | 87 | 0 | 0.0 | 0.0 | 0.00 | 0.00 | 0.00 | 43 | 979.6 |
| 20260906150513 | 87 | 0 | 0.0 | 0.0 | 0.00 | 0.00 | 0.00 | 45 | 980.1 |
| 20260906143515 | 87 | 0 | 0.0 | 0.0 | 0.00 | 0.00 | 0.00 | 45 | 980.2 |
| 20260906140511 | 87 | 0 | 0.0 | 0.0 | 0.00 | 0.00 | 0.00 | 46 | 980.6 |
| 20260906133512 | 88 | 0 | 0.0 | 0.0 | 0.00 | 0.00 | 0.00 | 46 | 980.7 |
| 20260906130510 | 87 | 0 | 0.0 | 0.0 | 0.00 | 0.00 | 0.00 | 45 | 980.9 |
| 20260906123511 | 87 | 0 | 0.0 | 4.0 | 0.00 | 0.00 | 0.00 | 45 | 981.2 |
| 20260906120509 | 86 | 0 | 0.0 | 1.0 | 0.00 | 0.00 | 0.00 | 50 | 981.1 |
| 20260906113509 | 85 | 0 | 0.0 | 1.0 | 0.00 | 0.00 | 0.00 | 51 | 981.5 |
| 20260906111907 | 84 | 0 | 0.0 | 6.0 | 0.00 | 0.00 | 0.00 | 53 | 981.9 |
| 20260906103507 | 83 | 0 | 0.0 | 3.0 | 0.00 | 0.00 | 0.00 | 55 | 982.3 |
| 20260906100507 | 81 | 0 | 0.0 | 0.0 | 0.00 | 0.00 | 0.00 | 58 | 982.7 |
| 20260906100302 | 79 | 0 | 0.0 | 0.0 | 0.00 | 0.00 | 0.00 | 61 | 983.0 |
| 20260906090506 | 77 | 0 | 0.0 | 0.0 | 0.00 | 0.00 | 0.00 | 65 | 983.2 |
| 20260906084901 | 74 | 0 | 0.0 | 0.0 | 0.00 | 0.00 | 0.00 | 70 | 983.3 |
| 20260906080505 | 71 | 0 | 0.0 | 0.0 | 0.00 | 0.00 | 0.00 | 74 | 983.3 |
| 20260906073504 | 68 | 0 | 0.0 | 0.0 | 0.00 | 0.00 | 0.00 | 81 | 983.2 |
| 20260906070503 | 64 | 0 | 0.0 | 0.0 | 0.00 | 0.00 | 0.00 | 88 | 983.1 |
| 20260906063457 | 62 | 0 | 0.0 | 1.0 | 0.00 | 0.00 | 0.00 | 90 | 983.2 |
| 20260906060458 | 61 | 0 | 0.0 | 0.0 | 0.00 | 0.00 | 0.00 | 90 | 983.1 |
| 20260906053458 | 61 | 0 | 0.0 | 0.0 | 0.00 | 0.00 | 0.00 | 89 | 983.0 |
| 20260906050504 | 62 | 333 | 0.0 | 0.0 | 0.00 | 0.00 | 0.00 | 88 | 982.7 |
| 20260906044822 | 62 | 333 | 0.0 | 0.0 | 0.00 | 0.00 | 0.00 | 87 | 982.5 |
| 20260906041825 | 63 | 332 | 0.0 | 0.0 | 0.00 | 0.00 | 0.00 | 86 | 982.4 |
| 20260906033445 | 64 | 332 | 0.0 | 0.0 | 0.00 | 0.00 | 0.00 | 86 | 982.5 |
| 20260906030444 | 64 | 333 | 0.0 | 2.0 | 0.00 | 0.00 | 0.00 | 86 | 982.6 |
| 20260906023445 | 65 | 0 | 0.0 | 0.0 | 0.00 | 0.00 | 0.00 | 86 | 982.6 |
| 20260906020440 | 65 | 0 | 0.0 | 0.0 | 0.00 | 0.00 | 0.00 | 86 | 982.6 |
| 20260906013441 | 65 | 0 | 0.0 | 0.0 | 0.00 | 0.00 | 0.00 | 86 | 982.6 |
| 20260906011813 | 65 | 0 | 0.0 | 0.0 | 0.00 | 0.00 | 0.00 | 84 | 982.6 |
| 20260906010204 | 66 | 0 | 0.0 | 0.0 | 0.00 | 0.00 | 0.00 | 83 | 982.5 |
| 20260906000440 | 66 | 0 | 0.0 | 0.0 | 0.00 | 0.00 | 0.00 | 83 | 982.7 |
| 20260905233440 | 67 | 0 | 0.0 | 0.0 | 0.00 | 0.00 | 0.00 | 81 | 982.7 |
| 20260905230452 | 68 | 0 | 0.0 | 0.0 | 0.00 | 0.00 | 0.00 | 80 | 982.7 |
| 20260905223437 | 69 | 0 | 0.0 | 0.0 | 0.00 | 0.00 | 0.00 | 78 | 982.9 |
| 20260905220436 | 70 | 0 | 0.0 | 0.0 | 0.00 | 0.00 | 0.00 | 76 | 982.6 |
| 20260905213436 | 71 | 0 | 0.0 | 0.0 | 0.00 | 0.00 | 0.00 | 74 | 982.6 |
| 20260905210446 | 72 | 0 | 0.0 | 0.0 | 0.00 | 0.00 | 0.00 | 72 | 982.7 |
| 20260905203433 | 73 | 0 | 0.0 | 1.0 | 0.00 | 0.00 | 0.00 | 69 | 982.8 |
| 20260905200434 | 74 | 42 | 0.0 | 1.0 | 0.00 | 0.00 | 0.00 | 66 | 982.7 |
| 20260905193431 | 75 | 0 | 0.0 | 1.0 | 0.00 | 0.00 | 0.00 | 64 | 982.5 |
| 20260905190429 | 76 | 0 | 0.0 | 4.0 | 0.00 | 0.00 | 0.00 | 61 | 982.2 |